Regional Weather Roundup
Issued by NWS

Home | Current Version | Previous Version | Graphics & Text | Print | Product List | Glossary On
Versions: 1 2 3 4 5 6 7 8 9 10 11 12 13 14 15 16 17 18 19 20 21 22 23 24 25 26 27 28 29 30 31 32 33 34 35 36 37 38 39 40 41 42 43 44 45 46 47 48 49 50
000
ASUS43 KMPX 270510
RWRMN
WEATHER ROUNDUP FOR MINNESOTA
NATIONAL WEATHER SERVICE TWIN CITIES/CHANHASSEN MN
1200 AM CDT TUE SEP 27 2016


NOTE: "FAIR" INDICATES FEW OR NO CLOUDS BELOW 12,000 FEET WITH NO
SIGNIFICANT WEATHER AND/OR OBSTRUCTIONS TO VISIBILITY. N/A MEANS
CURRENT SKY AND/OR WEATHER CONDITIONS ARE NOT AVAILABLE.

MNZ060>063-068>070-270600-
   Twin Cities Metro

CITY           SKY/WX    TMP DP  RH WIND       PRES   REMARKS
TWIN CITIES    CLEAR     56  36  47 W12       29.86F
ST PAUL        CLEAR     56  38  50 W17       29.86F
CRYSTAL        CLEAR     54  36  50 W8        29.85F
BLAINE         CLEAR     54  39  58 W9        29.85F
LAKEVILLE      CLEAR     52  36  54 W8        29.88S
EDEN PRAIRIE   CLEAR     55  35  47 W7        29.87F
LAKEVILLE      CLEAR     52  36  54 W8        29.88S
SOUTH ST PAUL  CLEAR     56  36  47 W9        29.86S
LAKE ELMO      FAIR      54  41  62 W9        29.85F
$$
MNZ001>005-007-008-013>017-022>024-027-028-270600-
   Northwest Minnesota

CITY           SKY/WX    TMP DP  RH WIND       PRES   REMARKS
BEMIDJI        PTCLDY    46  40  79 W14       29.84F
HALLOCK        CLEAR     46  45  93 NW9       29.91F
ROSEAU         CLOUDY    52  45  76 NW14      29.83F
WARROAD        CLOUDY    50  45  81 NW12G18   29.82F
THIEF RVR FALL CLEAR     47  42  83 NW10      29.90F
CROOKSTON      CLEAR     43  41  93 W7        29.93S
FOSSTON        CLEAR     45  39  81 NW10      29.89F
DETROIT LAKES  CLEAR     45  41  87 NW8       29.92F
MOORHEAD       CLEAR     48  34  57 NW9       29.95R
PARK RAPIDS    CLEAR     49  38  65 NW12      29.86F
MAHNOMEN       FAIR      43  40  91 W9        29.90F
$$
MNZ006-009>011-018-025>026-270600-
   North Central Minnesota

CITY           SKY/WX    TMP DP  RH WIND       PRES   REMARKS
BAUDETTE       CLOUDY    50  45  83 NW17G24   29.77F
FLAG ISLAND    CLOUDY    52  46  82 NW22G29   29.76S
INTL FALLS     CLOUDY    49  47  93 NW13      29.69F
WASKISH        CLOUDY    52  45  76 NW15G26   29.79F
BIG FORK       CLOUDY    50  43  76 W6G21     29.75S
GRAND RAPIDS   CLOUDY    51  42  71 NW16G29   29.77F
CRANE LAKE     LGT RAIN  48  46  93 W3        29.66F
ORR            DRIZZLE   48  45  87 W18       29.67S
COOK           RAIN      48  46  93 W15G22    29.69F
WALKER         CLOUDY    47  40  76 W10       29.83F
$$
MNZ012-019>021-037-270600-
   Northeast Minnesota

CITY           SKY/WX    TMP DP  RH WIND       PRES   REMARKS
DULUTH         MOCLDY    52  44  74 NW18G28   29.69S
ELY            DRIZZLE   48  46  93 NW10      29.62S
HIBBING        CLOUDY    48  44  86 NW13G26   29.71F
EVELETH        LGT RAIN  50  47  88 W15G29    29.70S
DULUTH HARBOR  CLOUDY    55  46  71 W16       29.70F
TWO HARBORS    CLOUDY    54  48  82 W8G20     29.64S
SILVER BAY     DRIZZLE   52  48  87 W6        29.60F
GRAND MARAIS     N/A     51  48  89 VRB7G18   29.51F
G MARAIS ARPRT CLOUDY    46  43  87 W12G23    29.52F FOG
$$
MNZ029>031-032-039>041-046>048-054>057-064-270600-
   West Central Minnesota

CITY           SKY/WX    TMP DP  RH WIND       PRES   REMARKS
FERGUS FALLS   CLEAR     45  36  70 NW8       29.95S
MORRIS         CLEAR     50  36  57 W13       29.93S
ALEXANDRIA     CLEAR     49  34  56 W12       29.92F
ELBOW LAKE     FAIR      44  36  72 NW9       29.93F
GLENWOOD       CLEAR     46  34  61 W9        29.92F
BENSON         CLEAR     48  34  57 NW7       29.94S
ORTONVILLE     CLEAR     54  37  54 W13       29.96F
MADISON          N/A     50  39  66 W7        29.97F
WILLMAR        FAIR      46  37  71 W8        29.95S
$$
MNZ033>034-036-042>043-049>051-058-059-270600-
   Central Minnesota

CITY           SKY/WX    TMP DP  RH WIND       PRES   REMARKS
ST CLOUD       CLEAR     51  38  60 W10       29.86F
SAUK CENTRE    FAIR      47  34  59 W10       29.90S
PAYNESVILLE    CLEAR     46  35  65 W9        29.91S
AITKIN         MOCLDY    54  39  58 W3        29.79F
PINE RIVER     CLEAR     50  43  76 NW10      29.86F
BRAINERD       CLEAR     51  41  68 NW14G24   29.84F
STAPLES        CLEAR     46  41  81 NW12      29.87F
LONG PRAIRIE   FAIR      50  34  53 W10       29.89S
LITTLE FALLS   CLEAR     45  37  76 CALM      29.87S
LITCHFIELD     CLEAR     55  37  50 W8        29.91S
BUFFALO        CLEAR     53  37  54 W9        29.88F
MAPLE LAKE     CLEAR     53  38  56 W6        29.88F
HUTCHINSON     CLEAR     47  38  71 W6        29.92F
$$
MNZ037-044-045-052-053-270600-
   East Central Minnesota

CITY           SKY/WX    TMP DP  RH WIND       PRES   REMARKS
PRINCETON      CLEAR     52  41  66 W6        29.85S
MORA           CLEAR     52  39  62 NW10G20   29.83S
CAMBRIDGE      CLEAR     54  41  62 W7        29.82S
MOOSE LAKE     CLOUDY    54  39  58 NW9G23    29.74F
HINCKLEY       FAIR      52  41  66 W9G17     29.79F
CLOQUET        CLOUDY    54  41  62 W10G24    29.72S
MCGREGOR       CLOUDY    52  41  66 W12G18    29.78S
$$
MNZ071>073-080-081-089-090-097-098-270600-
   Southwest Minnesota

CITY           SKY/WX    TMP DP  RH WIND       PRES   REMARKS
MONTEVIDEO     CLEAR     50  37  62 NW7       29.97F
GRANITE FALLS  CLEAR     51  40  66 W9        29.97F
CANBY          CLEAR     54  37  53 NW9       29.99F
MARSHALL       CLEAR     49  37  63 W10       29.99
REDWOOD FALLS  CLEAR     51  36  56 W9        29.95F
OLIVIA         CLEAR     50  36  57 W9        29.93F
PIPESTONE      CLEAR     50  34  53 NW5       30.02F
WINDOM         CLEAR     46  37  71 W6        29.99S
WORTHINGTON    CLEAR     50  36  58 W8        30.02S
JACKSON        CLEAR     54  32  43 W12       30.00S
TRACY          CLEAR     53  38  58 W5        29.99S
SLAYTON        CLEAR     48  36  61 W7        30.01F
$$
MNZ065>067-074>077-082>085-091>093-270600-
   South Central Minnesota

CITY           SKY/WX    TMP DP  RH WIND       PRES   REMARKS
MANKATO        CLEAR     53  37  54 W10       29.93
NEW ULM        CLEAR     52  37  58 W12       29.94F
ST JAMES       CLEAR     52  37  58 W8          N/A
FAIRMONT       CLEAR     51  37  58 W8        29.98S
GLENCOE        CLEAR     51  39  63 W6        29.90F
FARIBAULT      CLEAR     54  36  50 W10       29.91S
OWATONNA       CLEAR     52  36  54 W8        29.91S
WASECA         CLEAR     45  36  70 W7        29.94S
ALBERT LEA     CLEAR     54  36  50 W7        29.94S
$$
MNZ078>079-086>088-094>096-270600-
   Southeast Minnesota

CITY           SKY/WX    TMP DP  RH WIND       PRES   REMARKS
ROCHESTER      CLEAR     52  36  54 W12       29.90S
RED WING       CLEAR     52  37  58 W5        29.84S
DODGE CENTER   PTCLDY    48  36  61 W9        29.90S
WINONA         CLEAR     55  36  47 NW9G17    29.85S
AUSTIN         CLEAR     54  36  50 W10G16    29.92S
PRESTON        CLEAR     51  35  54 W13       29.90S
$$
ABBREVIATIONS USED IN REMARKS
   TC - TEMPERATURES IN CELSIUS
  WCI - WIND CHILL INDEX
   HX - HEAT INDEX
  VSB - VISIBILITY
$$



USA.gov is the U.S. government's official web portal to all federal, state and local government web resources and services.